Location: Amsterdam
(30.7274°N, 84.4357°W)
Time: 01:25:46
(UTC+00:00)

Tiangong - Visible Passes

Search period start: 18 July 2024 00:00
Search period end: 28 July 2024 00:00
Orbit: 374 x 377 km, 41.5° (Epoch: 17 July)

Date Brightness Start Highest point End Pass type
(mag) Time Alt. Az. Time Alt. Az. Time Alt. Az.
18 Jul 0.9 08:36:18 10° NNW 08:37:25 11° N 08:38:31 10° NNE visible
18 Jul 0.6 10:12:37 10° NNW 10:14:52 18° NNE 10:17:06 10° ENE visible
19 Jul 0.9 09:10:23 10° NNW 09:12:04 14° N 09:13:46 10° NE visible
20 Jul 1.2 08:09:17 12° N 08:09:17 12° N 08:10:24 10° NNE visible
20 Jul 0.2 09:43:53 10° NW 09:46:31 25° NNE 09:49:09 10° E visible
21 Jul 0.7 08:42:05 12° NNW 08:43:41 17° NNE 08:45:48 10° ENE visible
21 Jul -2.0 10:17:32 10° WNW 10:20:39 78° NNE 10:23:44 10° ESE visible
22 Jul -0.7 09:15:11 11° NW 09:17:54 37° NNE 09:20:49 10° E visible
23 Jul 0.9 08:16:39 15° ENE 08:16:39 15° ENE 08:17:32 10° ENE visible
23 Jul -2.1 09:48:46 10° WNW 09:51:46 53° SW 09:54:48 10° SE visible
24 Jul 0.4 02:17:29 10° SW 02:17:54 13° SW 02:17:54 13° SW visible
24 Jul -0.1 08:50:45 23° ESE 08:50:45 23° ESE 08:52:04 10° ESE visible
25 Jul -0.8 01:15:22 10° SSW 01:17:45 20° SE 01:20:03 11° E visible
25 Jul 0.5 02:51:15 10° W 02:52:10 17° W 02:52:10 17° W visible
25 Jul 0.5 09:25:18 10° SSE 09:25:18 10° SSE 09:25:20 10° SSE visible
26 Jul -2.3 01:48:12 10° WSW 01:51:17 89° NW 01:53:42 15° ENE visible
27 Jul 0.0 02:22:20 10° W 02:25:02 27° NNW 02:26:44 17° NNE visible
